Regional Weather Roundup
Issued by NWS Raleigh/Durham, NC

Home | Current Version | Previous Version | Text Only | Print | Product List | Glossary On
Versions: 1 2 3 4 5 6 7 8 9 10 11 12 13 14 15 16 17 18 19 20 21 22 23 24 25 26 27 28 29 30 31 32 33 34 35 36 37 38 39 40 41 42 43 44 45 46 47 48 49 50
000
ASUS42 KRAH 210210
RWRRAH
NORTH CAROLINA WEATHER ROUNDUP
NATIONAL WEATHER SERVICE RALEIGH NC
1000 PM EDT SAT SEP 20 2014

NOTE: "FAIR" INDICATES FEW OR NO CLOUDS BELOW 12,000 FEET WITH NO
SIGNIFICANT WEATHER AND/OR OBSTRUCTIONS TO VISIBILITY.

NCZ001-053-055-056-065-067-210300-
WESTERN NORTH CAROLINA

CITY           SKY/WX    TMP DP  RH WIND       PRES   REMARKS
ASHEVILLE      CLEAR     61  58  90 CALM      30.12R
JEFFERSON      NOT AVBL
HICKORY        CLEAR     65  61  87 CALM      30.07R
RUTHERFORDTON  CLEAR     64  62  96 NW6       30.07R
MOUNT AIRY     NOT AVBL
BOONE          CLEAR     55  55 100 CALM      30.16S FOG
$$

NCZ021-022-025-041-071-084-088-210300-
CENTRAL NORTH CAROLINA

CITY           SKY/WX    TMP DP  RH WIND       PRES   REMARKS
CHARLOTTE      NOT AVBL
GREENSBORO     MOCLDY    67  59  75 CALM      30.05S
WINSTON-SALEM  MOCLDY    67  57  70 NE3       30.07R
RALEIGH-DURHAM MOCLDY    68  59  73 NE5       30.02F
FORT BRAGG     CLOUDY    72  62  70 N6        29.99F
FAYETTEVILLE   CLOUDY    71  63  75 N7        29.98F
BURLINGTON     MOCLDY    67  57  70 CALM      30.03F
LAURINBURG     CLOUDY    70  62  76 N7        29.99F
$$

NCZ011-015-027-028-043-044-047-080-103-210300-
NORTHEASTERN NORTH CAROLINA

CITY           SKY/WX    TMP DP  RH WIND       PRES   REMARKS
ROCKY MT-WILSO CLOUDY    70  65  84 NE5       30.01F
GREENVILLE     LGT RAIN  70  68  94 NE6       30.01F
WASHINGTON     CLOUDY    69  67  94 NE5       29.99F
ELIZABETH CITY CLOUDY    71  69  93 N8        30.00F
MANTEO         CLOUDY    73  71  93 E9        29.99F
CAPE HATTERAS  LGT RAIN  69  69 100 E8G17     29.95F
$$

NCZ078-087-090-091-093-098-101-210300-
SOUTHEASTERN NORTH CAROLINA

CITY           SKY/WX    TMP DP  RH WIND       PRES   REMARKS
LUMBERTON      CLOUDY    72  62  71 NE7       29.96F
GOLDSBORO      CLOUDY    72  71  98 NE1       29.97F
KINSTON        LGT RAIN  70  68  94 NE10      29.99F
KENANSVILLE    CLOUDY    70  66  87 N5        29.98F
NEW BERN       LGT RAIN  73  69  87 NE9       29.96F
CHERRY POINT   CLOUDY    71  69  93 NE12      29.95F
BEAUFORT       CLOUDY    71  69  93 N13       29.92F
JACKSONVILLE   CLOUDY    70  68  94 NE12      29.93F
WILMINGTON     CLOUDY    71  69  93 N15       29.92F
$$




USA.gov is the U.S. government's official web portal to all federal, state and local government web resources and services.